Tracking 35280 objects as of 7-Sep-2026
HD Live streaming from Space Station
objects crossing your sky now

KSF1-D


KSF1-D is no longer on orbit


NORAD ID: 48950
Int'l Code: 2021-059BZ
Launch date: June 30, 2021
Source: Luxembourg (LUXE)
Launch site: AIR FORCE EASTERN TEST RANGE (AFETR)
Decay date: 2023-12-05
Your satellite tracking list
Your tracking list is empty




NASA's NSSDC Master Catalog

Two Line Element Set (TLE):
1 48950U 21059BZ  23333.20996933  .04577486  25387-5  20376-2 0  9999
2 48950  97.5758 126.2004 0009251 299.9733  60.0637 16.22201133135432
Source of the keplerian elements: AFSPC